GW5277 Weather Reports


time (UTC)temp
C
wind
direction
speed
KPH
gust
KPH
rain 1hr
cm
rain 24hr
cm
rain mn
cm
humidity
%
barometer
mb
20260510071556 12 172 4.8 4.8 0.00 0.00 0.00 87 1013.1
20260510071055 12 147 0.0 3.2 0.00 0.00 0.00 87 1013.2
20260510070551 12 108 0.0 3.2 0.00 0.00 0.00 86 1013.1
20260510070048 12 194 3.2 3.2 0.00 0.00 0.00 89 1012.9
20260510065544 12 103 0.0 3.2 0.00 0.00 0.00 88 1013.1
20260510065041 12 131 0.0 0.0 0.00 0.00 0.00 88 1013.1
20260510064537 12 122 0.0 0.0 0.00 0.00 0.00 88 1013.1
20260510064034 12 149 1.6 1.6 0.00 0.00 0.00 86 1013.1
20260510063531 12 161 3.2 3.2 0.00 0.00 0.00 88 1013.1
20260510063028 12 114 1.6 3.2 0.00 0.00 0.00 88 1013.2
20260510062524 12 144 0.0 0.0 0.00 0.00 0.00 88 1013.3
20260510062019 12 143 3.2 3.2 0.00 0.00 0.00 87 1013.2
20260510061516 11 128 0.0 0.0 0.00 0.00 0.00 89 1013.1
20260510061012 12 128 0.0 0.0 0.00 0.00 0.00 88 1013.2
20260510060509 12 127 0.0 0.0 0.00 0.00 0.00 87 1013.4
20260510060006 12 125 0.0 0.0 0.00 0.00 0.00 87 1013.3
20260510055501 12 110 0.0 0.0 0.00 0.00 0.00 87 1013.1
20260510055000 12 120 0.0 0.0 0.00 0.00 0.00 86 1013.3
20260510054454 12 139 0.0 0.0 0.00 0.00 0.00 87 1013.3
20260510053950 12 137 0.0 0.0 0.00 0.00 0.00 86 1013.3
20260510053445 12 120 1.6 1.6 0.00 0.00 0.00 86 1013.3
20260510052942 12 128 0.0 1.6 0.00 0.00 0.00 87 1013.4
20260510052438 12 106 0.0 3.2 0.00 0.00 0.00 86 1013.4
20260510051934 12 147 0.0 1.6 0.00 0.00 0.00 86 1013.4
20260510051431 12 139 0.0 0.0 0.00 0.00 0.00 86 1013.3
20260510050927 12 138 1.6 4.8 0.00 0.00 0.00 85 1013.4
20260510050424 13 129 0.0 0.0 0.00 0.00 0.00 84 1013.4
20260510045921 12 125 0.0 1.6 0.00 0.00 0.00 86 1013.5
20260510045418 13 114 0.0 3.2 0.00 0.00 0.00 84 1013.4
20260510044915 13 120 0.0 1.6 0.00 0.00 0.00 84 1013.5
20260510044412 13 122 1.6 3.2 0.00 0.00 0.00 84 1013.4
20260510043908 13 137 3.2 3.2 0.00 0.00 0.00 83 1013.5
20260510043404 13 132 3.2 3.2 0.00 0.00 0.00 82 1013.3
20260510042903 13 130 1.6 3.2 0.00 0.00 0.00 83 1013.2
20260510042358 13 133 1.6 4.8 0.00 0.00 0.00 83 1013.2
20260510041854 13 121 3.2 3.2 0.00 0.00 0.00 84 1013.0
20260510041352 12 83 1.6 4.8 0.00 0.00 0.00 84 1013.1
20260510040849 12 82 0.0 0.0 0.00 0.00 0.00 87 1013.1
20260510040346 11 114 0.0 0.0 0.00 0.00 0.00 89 1013.0
20260510035841 11 120 0.0 0.0 0.00 0.00 0.00 89 1013.1
20260510035337 12 108 0.0 0.0 0.00 0.00 0.00 87 1013.1
20260510034833 12 95 0.0 0.0 0.00 0.00 0.00 88 1013.0
20260510034331 12 132 0.0 0.0 0.00 0.00 0.00 88 1013.0
20260510033827 11 91 0.0 0.0 0.00 0.00 0.00 88 1012.9
20260510033324 11 95 3.2 4.8 0.00 0.00 0.00 86 1012.9
20260510032821 12 89 0.0 1.6 0.00 0.00 0.00 85 1012.7
20260510032318 13 118 1.6 1.6 0.00 0.00 0.00 82 1012.8
20260510031813 13 121 3.2 3.2 0.00 0.00 0.00 81 1012.9
20260510031309 12 177 1.6 1.6 0.00 0.00 0.00 86 1012.8
20260510030809 11 157 1.6 3.2 0.00 0.00 0.00 89 1012.8
20260510030306 10 97 0.0 0.0 0.00 0.00 0.00 95 1012.6
20260510025803 10 0 0.0 0.0 0.00 0.00 0.00 95 1012.6
20260510025300 10 0 0.0 0.0 0.00 0.00 0.00 95 1012.8
20260510024757 10 359 0.0 0.0 0.00 0.00 0.00 95 1012.8
20260510024254 10 0 0.0 0.0 0.00 0.00 0.00 95 1012.5
20260510023750 10 0 0.0 0.0 0.00 0.00 0.00 94 1012.4
20260510023247 10 0 0.0 0.0 0.00 0.00 0.00 94 1012.4
20260510022744 10 0 0.0 0.0 0.00 0.00 0.00 94 1012.4
20260510022243 10 0 0.0 0.0 0.00 0.00 0.00 93 1012.4
20260510021743 10 0 0.0 0.0 0.00 0.00 0.00 93 1012.3
20260510021241 10 0 0.0 0.0 0.00 0.00 0.00 93 1012.3
20260510020737 10 0 0.0 0.0 0.00 0.00 0.00 92 1012.4
20260510020236 10 0 0.0 0.0 0.00 0.00 0.00 92 1012.3
20260510015733 10 0 0.0 0.0 0.00 0.00 0.00 92 1012.1
20260510015229 10 0 0.0 0.0 0.00 0.00 0.00 92 1012.0
20260510014724 10 0 0.0 0.0 0.00 0.00 0.00 90 1012.1
20260510014222 11 0 1.6 1.6 0.00 0.00 0.00 90 1012.0
20260510013717 11 130 0.0 0.0 0.00 0.00 0.00 88 1011.8
20260510013214 11 130 0.0 0.0 0.00 0.00 0.00 87 1011.9
20260510012713 11 130 0.0 0.0 0.00 0.00 0.00 86 1011.6
20260510012209 12 130 0.0 0.0 0.00 0.00 0.00 85 1011.6
20260510011704 12 130 0.0 0.0 0.00 0.00 0.00 83 1011.6
20260510011200 13 130 0.0 0.0 0.00 0.00 0.00 81 1011.4
20260510010656 13 130 0.0 0.0 0.00 0.00 0.00 79 1011.5
20260510010153 14 130 0.0 0.0 0.00 0.00 0.00 75 1011.4
20260510005649 15 128 0.0 0.0 0.00 0.00 0.00 75 1011.5
20260510005146 15 104 1.6 3.2 0.00 0.00 0.00 72 1011.3
20260510004645 15 118 0.0 0.0 0.00 0.00 0.00 71 1011.2
20260510004142 16 144 1.6 3.2 0.00 0.00 0.00 70 1011.3
20260510003639 16 159 3.2 6.4 0.00 0.00 0.00 68 1011.3
20260510003135 16 77 1.6 3.2 0.00 0.00 0.00 68 1011.2
20260510002635 16 131 1.6 6.4 0.00 0.00 0.00 67 1011.3
20260510002132 16 162 3.2 4.8 0.00 0.00 0.00 67 1010.9
20260510001628 16 136 3.2 4.8 0.00 0.00 0.00 65 1010.8
20260510001128 17 140 3.2 4.8 0.00 0.00 0.00 66 1010.9
20260510000627 17 93 1.6 3.2 0.00 0.00 0.00 64 1010.7
20260510000125 17 157 0.0 4.8 0.00 0.00 0.00 65 1010.7
20260509235621 17 197 3.2 9.7 0.00 0.00 0.00 64 1010.5
20260509235118 17 152 3.2 4.8 0.00 0.00 0.00 63 1010.7
20260509234614 17 173 4.8 6.4 0.00 0.00 0.00 64 1010.6
20260509234112 17 136 4.8 9.7 0.00 0.00 0.00 62 1010.5
20260509233609 18 178 3.2 9.7 0.00 0.00 0.00 61 1010.6
20260509233107 18 178 3.2 4.8 0.00 0.00 0.00 63 1010.4
20260509232603 18 135 0.0 6.4 0.00 0.00 0.00 62 1010.6
20260509232100 18 191 1.6 4.8 0.00 0.00 0.00 62 1010.5
20260509231556 18 183 4.8 6.4 0.00 0.00 0.00 62 1010.6
20260509231054 18 133 4.8 6.4 0.00 0.00 0.00 60 1010.4
20260509230550 18 188 6.4 9.7 0.00 0.00 0.00 61 1010.6
20260509230048 18 170 1.6 6.4 0.00 0.00 0.00 60 1010.3
20260509225543 18 175 4.8 9.7 0.00 0.00 0.00 60 1010.6
20260509225039 19 155 3.2 9.7 0.00 0.00 0.00 58 1010.8
20260509224535 18 227 3.2 12.9 0.00 0.00 0.00 60 1010.8
20260509224032 19 156 6.4 14.5 0.00 0.00 0.00 58 1010.7
20260509223529 18 136 3.2 6.4 0.00 0.00 0.00 60 1010.8
20260509223027 18 156 1.6 4.8 0.00 0.00 0.00 61 1010.8
20260509222522 18 143 6.4 14.5 0.00 0.00 0.00 60 1011.2
20260509222018 18 139 3.2 14.5 0.00 0.00 0.00 61 1010.9
20260509221514 18 166 6.4 12.9 0.00 0.00 0.00 58 1010.9
20260509221010 19 152 1.6 3.2 0.00 0.00 0.00 60 1011.2
20260509220506 19 209 6.4 11.3 0.00 0.00 0.00 58 1010.8
20260509220003 19 141 6.4 11.3 0.00 0.00 0.00 58 1010.9
20260509215458 18 197 1.6 6.4 0.00 0.00 0.00 61 1010.9
20260509214955 19 152 6.4 17.7 0.00 0.00 0.00 58 1010.9
20260509214453 19 152 8.0 14.5 0.00 0.00 0.00 60 1011.0
20260509213949 19 135 3.2 14.5 0.00 0.00 0.00 60 1011.0
20260509213445 19 203 1.6 11.3 0.00 0.00 0.00 60 1010.9
20260509212943 20 187 9.7 11.3 0.00 0.00 0.00 59 1010.9
20260509212440 20 182 3.2 11.3 0.00 0.00 0.00 57 1010.9
20260509211936 20 135 3.2 9.7 0.00 0.00 0.00 64 1010.9
20260509211432 19 275 4.8 6.4 0.00 0.00 0.00 61 1010.9
20260509210928 20 178 3.2 11.3 0.00 0.00 0.00 61 1010.9
20260509210426 18 99 1.6 4.8 0.00 0.00 0.00 67 1010.7
20260509205921 18 146 4.8 12.9 0.00 0.00 0.00 62 1011.2
20260509205420 18 144 3.2 6.4 0.00 0.00 0.00 63 1011.2
20260509204917 18 164 4.8 9.7 0.00 0.00 0.00 66 1010.9
20260509204413 18 169 8.0 11.3 0.00 0.00 0.00 63 1011.3
20260509203910 19 136 8.0 12.9 0.00 0.00 0.00 62 1010.9
20260509203406 20 151 3.2 9.7 0.00 0.00 0.00 61 1010.9
20260509202904 19 120 3.2 11.3 0.00 0.00 0.00 62 1011.2
20260509202359 19 261 3.2 11.3 0.00 0.00 0.00 63 1011.0
20260509201854 19 163 8.0 16.1 0.00 0.00 0.00 64 1011.0
20260509201350 19 221 6.4 16.1 0.00 0.00 0.00 62 1011.2
20260509200847 19 227 3.2 6.4 0.00 0.00 0.00 64 1011.4
20260509200342 19 217 17.7 25.7 0.00 0.00 0.00 68 1011.3
20260509195839 19 261 6.4 12.9 0.00 0.00 0.00 66 1011.5
20260509195339 18 201 9.7 16.1 0.00 0.00 0.00 64 1011.6
20260509194839 18 166 6.4 9.7 0.00 0.00 0.00 66 1011.5
20260509194335 18 126 6.4 11.3 0.00 0.00 0.00 66 1011.7
20260509193833 17 227 1.6 6.4 0.00 0.00 0.00 66 1011.8
20260509193332 17 178 3.2 9.7 0.00 0.00 0.00 69 1011.7
20260509192829 17 97 0.0 4.8 0.00 0.00 0.00 70 1011.8
20260509192325 17 119 1.6 14.5 0.00 0.00 0.00 69 1011.7
20260509191820 17 154 6.4 6.4 0.00 0.00 0.00 66 1011.6
20260509191316 17 144 8.0 11.3 0.00 0.00 0.00 66 1011.7
20260509190812 17 123 8.0 9.7 0.00 0.00 0.00 66 1011.9
20260509190310 17 227 3.2 4.8 0.00 0.00 0.00 64 1011.9
20260509185807 17 168 8.0 11.3 0.00 0.00 0.00 68 1011.8
20260509185306 17 151 12.9 17.7 0.00 0.00 0.00 68 1012.0
20260509184800 17 146 4.8 9.7 0.00 0.00 0.00 75 1011.7
20260509184258 17 176 6.4 11.3 0.00 0.00 0.00 74 1011.7
20260509183754 17 142 6.4 6.4 0.00 0.00 0.00 76 1011.8
20260509183249 16 158 6.4 9.7 0.00 0.00 0.00 77 1012.0
20260509182745 16 96 3.2 6.4 0.00 0.00 0.00 77 1011.7
20260509182243 16 151 4.8 11.3 0.00 0.00 0.00 77 1011.9
20260509181740 15 115 4.8 6.4 0.00 0.00 0.00 79 1011.8
20260509181237 15 134 3.2 4.8 0.00 0.00 0.00 80 1011.6
20260509180734 15 153 1.6 6.4 0.00 0.00 0.00 80 1011.9
20260509180226 15 127 3.2 9.7 0.00 0.00 0.00 81 1011.7
20260509175722 15 116 6.4 9.7 0.00 0.00 0.00 86 1011.8
20260509175218 15 80 3.2 4.8 0.00 0.00 0.00 86 1011.8
20260509174714 14 111 6.4 11.3 0.00 0.00 0.00 87 1011.9
20260509174209 14 112 6.4 11.3 0.00 0.00 0.00 86 1011.7
20260509173706 14 103 3.2 4.8 0.00 0.00 0.00 86 1011.9
20260509173201 14 172 0.0 4.8 0.00 0.00 0.00 88 1011.9
20260509172658 14 124 3.2 4.8 0.00 0.00 0.00 87 1012.2
20260509172154 14 121 3.2 6.4 0.00 0.00 0.00 90 1012.0
20260509171650 14 183 4.8 6.4 0.00 0.00 0.00 88 1012.1
20260509171146 13 148 3.2 4.8 0.00 0.00 0.00 90 1011.9
20260509170643 13 173 0.0 3.2 0.00 0.00 0.00 90 1012.1
20260509170139 13 93 1.6 4.8 0.00 0.00 0.00 89 1012.1
20260509165638 13 143 1.6 4.8 0.00 0.00 0.00 91 1012.0
20260509165133 13 123 1.6 3.2 0.00 0.00 0.00 92 1012.3
20260509164630 13 106 1.6 1.6 0.00 0.00 0.00 91 1012.2
20260509164126 13 140 1.6 3.2 0.00 0.00 0.00 90 1012.1
20260509163623 13 118 6.4 6.4 0.00 0.00 0.00 89 1012.3
20260509163118 13 169 1.6 3.2 0.00 0.00 0.00 91 1012.1
20260509162616 13 173 3.2 4.8 0.00 0.00 0.00 92 1012.2
20260509162112 13 127 4.8 6.4 0.00 0.00 0.00 91 1012.0
20260509161609 13 95 3.2 3.2 0.00 0.00 0.00 94 1012.1
20260509161109 12 117 0.0 0.0 0.00 0.00 0.00 95 1012.1
20260509160605 12 79 1.6 1.6 0.00 0.00 0.00 94 1012.1
20260509160100 12 136 3.2 3.2 0.00 0.00 0.00 94 1012.2
20260509155557 12 124 1.6 3.2 0.00 0.00 0.00 94 1012.3
20260509155053 12 147 1.6 3.2 0.00 0.00 0.00 94 1012.3
20260509154549 12 70 3.2 3.2 0.00 0.00 0.00 93 1012.5
20260509154047 12 104 3.2 4.8 0.00 0.00 0.00 92 1012.4
20260509153543 12 137 3.2 4.8 0.00 0.00 0.00 93 1012.3
20260509153034 12 93 4.8 4.8 0.00 0.00 0.00 93 1012.6
20260509152530 12 79 3.2 4.8 0.00 0.00 0.00 94 1012.6
20260509152027 12 79 1.6 1.6 0.00 0.00 0.00 95 1012.5
20260509151524 12 79 1.6 1.6 0.00 0.00 0.00 95 1012.4
20260509151022 12 97 3.2 3.2 0.00 0.00 0.00 94 1012.7
20260509150519 12 126 1.6 3.2 0.00 0.00 0.00 93 1012.6
20260509150017 12 101 1.6 1.6 0.00 0.00 0.00 95 1012.5
20260509145512 12 105 1.6 1.6 0.00 0.00 0.00 94 1012.8
20260509145008 12 89 0.0 0.0 0.00 0.00 0.00 95 1012.8
20260509144505 12 89 0.0 0.0 0.00 0.00 0.00 95 1012.6
20260509144002 12 89 0.0 0.0 0.00 0.00 0.00 95 1012.8
20260509143459 11 98 0.0 0.0 0.00 0.00 0.00 95 1012.8
20260509142955 11 98 1.6 3.2 0.00 0.00 0.00 95 1012.7
20260509142452 11 93 0.0 0.0 0.00 0.00 0.00 95 1012.7
20260509141947 11 89 1.6 1.6 0.00 0.00 0.00 96 1012.5
20260509141444 11 104 1.6 3.2 0.00 0.00 0.00 96 1012.7
20260509140941 11 89 0.0 1.6 0.00 0.00 0.00 96 1012.6
20260509140437 11 101 0.0 1.6 0.00 0.00 0.00 96 1012.7
20260509135936 11 101 1.6 3.2 0.00 0.00 0.00 96 1012.8
20260509135433 11 101 0.0 0.0 0.00 0.00 0.00 96 1013.0
20260509134930 11 93 1.6 3.2 0.00 0.00 0.00 95 1012.8
20260509134427 11 162 0.0 4.8 0.00 0.00 0.00 96 1012.8
20260509133924 11 114 0.0 0.0 0.00 0.00 0.00 97 1013.0
20260509133421 11 114 0.0 0.0 0.00 0.00 0.00 96 1013.0
20260509132919 11 114 0.0 0.0 0.00 0.00 0.00 97 1013.0
20260509132417 11 117 0.0 0.0 0.00 0.00 0.00 97 1012.8
20260509131914 11 119 0.0 1.6 0.00 0.00 0.00 97 1012.9
20260509131411 11 85 1.6 3.2 0.00 0.00 0.00 97 1012.9
20260509130908 11 142 1.6 3.2 0.00 0.00 0.00 97 1012.8
20260509130403 11 101 0.0 1.6 0.00 0.00 0.00 97 1012.8
20260509125900 11 111 0.0 0.0 0.00 0.00 0.00 97 1012.8
20260509125356 10 107 0.0 1.6 0.00 0.00 0.00 97 1012.9
20260509124852 10 148 0.0 1.6 0.00 0.00 0.00 97 1012.9
20260509124350 10 102 0.0 1.6 0.00 0.00 0.00 98 1013.2
20260509123848 10 106 0.0 0.0 0.00 0.00 0.00 98 1013.1
20260509123345 10 103 0.0 3.2 0.00 0.00 0.00 98 1013.1
20260509122840 10 120 0.0 3.2 0.00 0.00 0.00 98 1013.2
20260509122337 10 107 0.0 0.0 0.00 0.00 0.00 98 1013.4
20260509121834 10 107 0.0 1.6 0.00 0.00 0.00 98 1013.2
20260509121331 10 107 1.6 3.2 0.00 0.00 0.00 98 1013.3
20260509120830 10 120 0.0 1.6 0.00 0.00 0.00 98 1013.3
20260509120327 10 115 1.6 3.2 0.00 0.00 0.00 98 1013.1
20260509115825 10 98 0.0 0.0 0.00 0.00 0.00 98 1013.3
20260509115322 10 100 1.6 1.6 0.00 0.00 0.00 98 1013.2
20260509114819 10 105 0.0 0.0 0.00 0.00 0.00 98 1013.0
20260509114318 10 90 3.2 3.2 0.00 0.00 0.00 97 1013.1
20260509113817 10 283 0.0 0.0 0.00 0.00 0.00 98 1013.2
20260509113313 10 59 0.0 0.0 0.00 0.00 0.00 98 1013.1
20260509112810 10 115 0.0 0.0 0.00 0.00 0.00 98 1013.1
20260509112308 10 113 0.0 0.0 0.00 0.00 0.00 98 1013.1
20260509111804 10 113 0.0 0.0 0.00 0.00 0.00 98 1013.1
20260509111301 10 113 0.0 0.0 0.00 0.00 0.00 98 1013.0
20260509110759 10 113 0.0 0.0 0.00 0.00 0.00 98 1012.8
20260509110255 10 112 0.0 0.0 0.00 0.00 0.00 98 1012.7
20260509105753 10 112 0.0 0.0 0.00 0.00 0.00 97 1012.7
20260509105250 10 112 0.0 0.0 0.00 0.00 0.00 97 1012.7
20260509104747 10 113 0.0 0.0 0.00 0.00 0.00 97 1012.7
20260509104244 10 114 0.0 0.0 0.00 0.00 0.00 97 1012.9
20260509103742 10 114 0.0 0.0 0.00 0.00 0.00 97 1012.7
20260509103239 10 114 0.0 0.0 0.00 0.00 0.00 97 1012.7
20260509102738 10 114 0.0 0.0 0.00 0.00 0.00 97 1012.8
20260509102234 10 97 0.0 0.0 0.00 0.00 0.00 97 1012.8
20260509101730 10 90 0.0 0.0 0.00 0.00 0.00 97 1012.8
20260509101227 10 90 0.0 0.0 0.00 0.00 0.00 97 1012.8
20260509100724 10 127 0.0 0.0 0.00 0.00 0.00 97 1012.9
20260509100221 10 125 1.6 1.6 0.00 0.00 0.00 97 1012.8
20260509095718 10 100 1.6 4.8 0.00 0.00 0.00 97 1012.9
20260509095215 10 133 1.6 1.6 0.00 0.00 0.00 97 1012.9
20260509094712 10 107 0.0 1.6 0.00 0.00 0.00 96 1012.9
20260509094209 10 114 1.6 1.6 0.00 0.00 0.00 95 1013.0
20260509093708 10 118 0.0 0.0 0.00 0.00 0.00 93 1012.9
20260509093204 10 160 0.0 0.0 0.00 0.00 0.00 94 1013.1
20260509092702 10 57 0.0 1.6 0.00 0.00 0.00 93 1013.0
20260509092200 10 295 1.6 3.2 0.00 0.00 0.00 93 1012.9
20260509091658 10 279 0.0 0.0 0.00 0.00 0.00 93 1013.3
20260509091154 10 335 0.0 0.0 0.00 0.00 0.00 93 1013.2
20260509090652 10 336 0.0 0.0 0.00 0.00 0.00 91 1013.4
20260509090148 10 334 0.0 0.0 0.00 0.00 0.00 90 1013.4
20260509085646 10 39 0.0 0.0 0.00 0.00 0.00 89 1013.4
20260509085142 11 90 1.6 1.6 0.00 0.00 0.00 89 1013.5
20260509084640 11 235 1.6 4.8 0.00 0.00 0.00 86 1013.5
20260509084137 11 278 0.0 3.2 0.00 0.00 0.00 85 1013.2
20260509083634 11 289 1.6 3.2 0.00 0.00 0.00 86 1013.2
20260509083130 11 290 3.2 4.8 0.00 0.00 0.00 81 1013.3
20260509082628 12 268 4.8 12.9 0.00 0.00 0.00 77 1013.1
20260509082124 12 211 4.8 6.4 0.00 0.00 0.00 74 1013.3
20260509081621 12 267 0.0 6.4 0.00 0.00 0.00 71 1013.3
20260509081119 12 285 3.2 9.7 0.00 0.00 0.00 70 1013.2
20260509080617 12 126 1.6 9.7 0.00 0.00 0.00 71 1013.2
20260509080114 12 183 1.6 4.8 0.00 0.00 0.00 73 1013.2
20260509075612 12 128 0.0 0.0 0.00 0.00 0.00 74 1012.6
20260509075110 12 239 0.0 0.0 0.00 0.00 0.00 70 1012.5
20260509074606 12 244 0.0 0.0 0.00 0.00 0.00 73 1012.4
20260509074103 12 136 0.0 0.0 0.00 0.00 0.00 75 1012.3
20260509073600 12 120 1.6 4.8 0.00 0.00 0.00 74 1012.3
20260509073056 12 163 1.6 3.2 0.00 0.00 0.00 73 1012.2
20260509072552 10 172 3.2 3.2 0.00 0.00 0.00 81 1012.1
20260509072044 10 110 0.0 0.0 0.00 0.00 0.00 89 1011.9